Location: *
(46.4833°N, 7.6667°E)
Time: 15:28:40
(UTC+00:00)

NOAA 11 - Pass Details

Date: 27 February 2020
Orbit: 833 x 849 km, 98.4° (Epoch: 27 March)

Event Time Altitude Azimuth Distance (km) Brightness Sun altitude
Rises 18:00:41 0° 167° (SSE) 3,377 7.2 -9.2°
Reaches altitude 10° 18:03:02 10° 168° (SSE) 2,445 6.5 -9.6°
Maximum altitude 18:08:28 82° 255° (WSW) 850 4.3 -10.6°
Drops below altitude 10° 18:13:55 10° 344° (NNW) 2,455 6.8 -11.5°
Sets 18:16:18 0° 346° (NNW) 3,393 7.5 -11.9°
